When you browse on this site, cookies collect data to enhance your experience and personalize the content and advertising you see.
Visit our Privacy Policy to learn more. By continuing to use the site, you agree to this use of cookies and data.
  • en Suisse
  • Liste des pays
  • À 7 jours
  • Température de l'eau
  • Carte météo
  • Widgets météo
  • user-avatar
    Se connecter

    Météo par heure à Arakaka

    Ce jour, 28 Mai, Jeudi

    Heure Température Précipitation Vent Pression Humidité
    00:00 +24°C° 0 mm 1 m/s 753 mmHg 98%
    01:00 +22°C° 0 mm 0 m/s 753 mmHg 98%
    02:00 +22°C° 0 mm 0 m/s 753 mmHg 98%
    03:00 +22°C° 0 mm 0 m/s 753 mmHg 98%
    04:00 +22°C° 0 mm 0 m/s 753 mmHg 98%
    05:00 +22°C° 0 mm 0 m/s 753 mmHg 98%
    06:00 +23°C° 0 mm 0 m/s 753 mmHg 92%
    07:00 +27°C° 0 mm 1 m/s 754 mmHg 87%
    08:00 +28°C° 0 mm 1 m/s 754 mmHg 82%
    09:00 +30°C° 0 mm 1 m/s 754 mmHg 72%
    10:00 +32°C° 0 mm 1 m/s 754 mmHg 62%
    11:00 +34°C° 0 mm 2 m/s 754 mmHg 52%
    12:00 +32°C° 0.9 mm 2 m/s 753 mmHg 62%
    13:00 +31°C° 0.9 mm 2 m/s 752 mmHg 73%
    14:00 +30°C° 0.9 mm 2 m/s 751 mmHg 83%
    15:00 +29°C° 0.9 mm 1 m/s 751 mmHg 86%
    16:00 +29°C° 0.9 mm 1 m/s 751 mmHg 89%
    17:00 +28°C° 0.9 mm 1 m/s 751 mmHg 93%
    18:00 +27°C° 0.2 mm 1 m/s 752 mmHg 94%
    19:00 +26°C° 0.2 mm 1 m/s 752 mmHg 96%
    20:00 +25°C° 0.2 mm 1 m/s 753 mmHg 97%
    21:00 +25°C° 0 mm 1 m/s 753 mmHg 98%
    22:00 +25°C° 0 mm 1 m/s 754 mmHg 98%
    23:00 +23°C° 0 mm 0 m/s 754 mmHg 98%

    Demain, 29 Mai, Vendredi

    Heure Température Précipitation Vent Pression Humidité
    00:00 +23°C° 0 mm 0 m/s 754 mmHg 98%
    01:00 +23°C° 0 mm 0 m/s 753 mmHg 99%
    02:00 +23°C° 0 mm 0 m/s 752 mmHg 99%
    03:00 +23°C° 0.1 mm 0 m/s 752 mmHg 98%
    04:00 +23°C° 0.1 mm 0 m/s 753 mmHg 98%
    05:00 +23°C° 0.1 mm 0 m/s 753 mmHg 98%
    06:00 +25°C° 0.3 mm 1 m/s 753 mmHg 97%
    07:00 +26°C° 0.3 mm 1 m/s 754 mmHg 95%
    08:00 +27°C° 0.3 mm 2 m/s 754 mmHg 94%
    09:00 +28°C° 0.7 mm 2 m/s 754 mmHg 89%
    10:00 +29°C° 0.7 mm 2 m/s 754 mmHg 84%
    11:00 +30°C° 0.7 mm 2 m/s 754 mmHg 79%
    12:00 +30°C° 1.1 mm 2 m/s 753 mmHg 81%
    13:00 +30°C° 1.1 mm 2 m/s 752 mmHg 83%
    14:00 +30°C° 1.1 mm 1 m/s 752 mmHg 85%
    15:00 +29°C° 1.5 mm 1 m/s 752 mmHg 88%
    16:00 +28°C° 1.5 mm 1 m/s 751 mmHg 92%
    17:00 +28°C° 1.5 mm 1 m/s 751 mmHg 95%
    18:00 +27°C° 0.8 mm 1 m/s 752 mmHg 96%
    19:00 +26°C° 0.8 mm 1 m/s 753 mmHg 97%
    20:00 +25°C° 0.8 mm 1 m/s 753 mmHg 98%
    21:00 +25°C° 0.2 mm 1 m/s 753 mmHg 98%
    22:00 +25°C° 0.2 mm 1 m/s 754 mmHg 99%
    23:00 +25°C° 0.2 mm 1 m/s 754 mmHg 99%

    Après-demain, 30 Mai, Samedi

    Heure Température Précipitation Vent Pression Humidité
    00:00 +25°C° 0.6 mm 1 m/s 753 mmHg 99%
    01:00 +23°C° 0.6 mm 0 m/s 753 mmHg 99%
    02:00 +23°C° 0.6 mm 0 m/s 753 mmHg 99%
    03:00 +23°C° 0.1 mm 0 m/s 753 mmHg 99%
    04:00 +23°C° 0.1 mm 0 m/s 753 mmHg 99%
    05:00 +23°C° 0.1 mm 0 m/s 753 mmHg 99%
    06:00 +23°C° 0 mm 0 m/s 753 mmHg 98%
    07:00 +24°C° 0 mm 0 m/s 754 mmHg 96%
    08:00 +24°C° 0 mm 0 m/s 754 mmHg 95%
    09:00 +28°C° 0.2 mm 1 m/s 754 mmHg 85%
    10:00 +30°C° 0.2 mm 1 m/s 754 mmHg 75%
    11:00 +32°C° 0.2 mm 2 m/s 754 mmHg 64%
    12:00 +31°C° 1.7 mm 2 m/s 753 mmHg 73%
    13:00 +30°C° 1.7 mm 2 m/s 753 mmHg 83%
    14:00 +29°C° 1.7 mm 2 m/s 752 mmHg 92%
    15:00 +27°C° 1.6 mm 1 m/s 752 mmHg 94%
    16:00 +26°C° 1.6 mm 1 m/s 752 mmHg 96%
    17:00 +23°C° 1.6 mm 0 m/s 751 mmHg 98%
    18:00 +22°C° 0 mm 0 m/s 752 mmHg 98%
    19:00 +22°C° 0 mm 0 m/s 752 mmHg 98%
    20:00 +22°C° 0 mm 0 m/s 753 mmHg 98%
    21:00 +22°C° 0 mm 0 m/s 753 mmHg 98%
    22:00 +22°C° 0 mm 0 m/s 753 mmHg 98%
    23:00 +22°C° 0 mm 0 m/s 754 mmHg 98%

    31 Mai, Dimanche

    Heure Température Précipitation Vent Pression Humidité
    00:00 +21°C° 0 mm 0 m/s 753 mmHg 98%
    01:00 +21°C° 0 mm 0 m/s 753 mmHg 98%
    02:00 +21°C° 0 mm 0 m/s 753 mmHg 98%
    03:00 +21°C° 0.4 mm 0 m/s 753 mmHg 98%
    04:00 +21°C° 0.4 mm 0 m/s 753 mmHg 98%
    05:00 +21°C° 0.4 mm 0 m/s 753 mmHg 99%
    06:00 +22°C° 0.2 mm 0 m/s 753 mmHg 96%
    07:00 +23°C° 0.2 mm 0 m/s 754 mmHg 93%
    08:00 +24°C° 0.2 mm 0 m/s 754 mmHg 90%
    09:00 +28°C° 0.1 mm 1 m/s 754 mmHg 82%
    10:00 +30°C° 0.1 mm 1 m/s 754 mmHg 74%
    11:00 +32°C° 0.1 mm 1 m/s 754 mmHg 66%
    12:00 +31°C° 0.8 mm 1 m/s 753 mmHg 71%
    13:00 +31°C° 0.8 mm 1 m/s 753 mmHg 77%
    14:00 +30°C° 0.8 mm 1 m/s 752 mmHg 82%
    15:00 +29°C° 0.9 mm 1 m/s 752 mmHg 87%
    16:00 +28°C° 0.9 mm 1 m/s 752 mmHg 91%
    17:00 +27°C° 0.9 mm 1 m/s 752 mmHg 96%
    18:00 +27°C° 0.1 mm 1 m/s 752 mmHg 97%
    19:00 +26°C° 0.1 mm 1 m/s 752 mmHg 98%
    20:00 +23°C° 0.1 mm 0 m/s 753 mmHg 99%
    21:00 +23°C° 0 mm 0 m/s 753 mmHg 99%
    22:00 +23°C° 0 mm 0 m/s 754 mmHg 99%
    23:00 +23°C° 0 mm 0 m/s 754 mmHg 99%

    1 Juin, Lundi

    Heure Température Précipitation Vent Pression Humidité
    00:00 +23°C° 0 mm 0 m/s 754 mmHg 99%
    01:00 +23°C° 0 mm 0 m/s 753 mmHg 99%
    02:00 +22°C° 0 mm 0 m/s 753 mmHg 99%
    03:00 +22°C° 0 mm 0 m/s 753 mmHg 99%
    04:00 +22°C° 0 mm 0 m/s 753 mmHg 99%
    05:00 +22°C° 0 mm 0 m/s 753 mmHg 99%
    06:00 +25°C° 0.1 mm 1 m/s 753 mmHg 97%
    07:00 +26°C° 0.1 mm 1 m/s 754 mmHg 95%
    08:00 +27°C° 0.1 mm 1 m/s 754 mmHg 93%
    09:00 +28°C° 0.3 mm 1 m/s 754 mmHg 84%
    10:00 +30°C° 0.3 mm 1 m/s 754 mmHg 76%
    11:00 +31°C° 0.3 mm 2 m/s 754 mmHg 67%
    12:00 +32°C° 0.2 mm 2 m/s 753 mmHg 62%
    13:00 +34°C° 0.2 mm 2 m/s 753 mmHg 57%
    14:00 +34°C° 0.2 mm 2 m/s 752 mmHg 52%
    15:00 +34°C° 0 mm 2 m/s 752 mmHg 55%
    16:00 +32°C° 0 mm 2 m/s 751 mmHg 59%
    17:00 +31°C° 0 mm 2 m/s 751 mmHg 62%
    18:00 +29°C° 0 mm 1 m/s 752 mmHg 71%
    19:00 +27°C° 0 mm 1 m/s 752 mmHg 79%
    20:00 +26°C° 0 mm 1 m/s 753 mmHg 88%
    21:00 +25°C° 0 mm 1 m/s 753 mmHg 90%
    22:00 +25°C° 0 mm 1 m/s 753 mmHg 93%
    23:00 +24°C° 0 mm 1 m/s 754 mmHg 96%

    2 Juin, Mardi

    Heure Température Précipitation Vent Pression Humidité
    00:00 +24°C° 0 mm 1 m/s 753 mmHg 97%
    01:00 +22°C° 0 mm 0 m/s 753 mmHg 98%
    02:00 +21°C° 0 mm 0 m/s 752 mmHg 99%
    03:00 +21°C° 0 mm 0 m/s 753 mmHg 99%
    04:00 +21°C° 0 mm 0 m/s 753 mmHg 99%
    05:00 +21°C° 0 mm 0 m/s 753 mmHg 99%
    06:00 +22°C° 0 mm 0 m/s 753 mmHg 93%
    07:00 +25°C° 0 mm 1 m/s 753 mmHg 87%
    08:00 +27°C° 0 mm 1 m/s 754 mmHg 81%
    09:00 +28°C° 0 mm 1 m/s 754 mmHg 74%
    10:00 +30°C° 0 mm 1 m/s 754 mmHg 67%
    11:00 +32°C° 0 mm 2 m/s 754 mmHg 59%
    12:00 +34°C° 0 mm 2 m/s 753 mmHg 54%
    13:00 +34°C° 0 mm 2 m/s 753 mmHg 49%
    14:00 +34°C° 0 mm 1 m/s 752 mmHg 44%
    15:00 +33°C° 0 mm 1 m/s 752 mmHg 49%
    16:00 +33°C° 0 mm 1 m/s 751 mmHg 54%
    17:00 +32°C° 0 mm 1 m/s 751 mmHg 59%
    18:00 +30°C° 0 mm 1 m/s 751 mmHg 67%
    19:00 +28°C° 0 mm 1 m/s 752 mmHg 75%
    20:00 +26°C° 0 mm 1 m/s 753 mmHg 83%
    21:00 +26°C° 0 mm 1 m/s 753 mmHg 87%
    22:00 +25°C° 0 mm 1 m/s 753 mmHg 91%
    23:00 +25°C° 0 mm 1 m/s 754 mmHg 95%
    Voir plus